Location: ?p Thanh B�nh
(16.5833°N, 107.5333°E)
Time: 09:32:18
(UTC+00:00)

deb Chang Zheng 4 - Pass Details

Date: 29 October 2020
Orbit: 602 x 625 km, 98.6° (Epoch: 23 November)

Event Time Altitude Azimuth Distance (km) Brightness Sun altitude
Rises 21:49:57 0° 356° (N) 2,856 6.8 -14.1°
Reaches altitude 10° 21:52:20 10° 345° (NNW) 1,955 5.9 -13.6°
Maximum altitude 21:55:59 29° 285° (WNW) 1,126 4.3 -12.7°
Drops below altitude 10° 21:59:41 10° 225° (SW) 1,965 5.8 -11.8°
Sets 22:02:05 0° 214° (SW) 2,873 6.8 -11.3°
